Time,TemperatureF,DewpointF,PressureIn,WindDirection,WindDirectionDegrees,WindSpeedMPH,WindSpeedGustMPH,Humidity,HourlyPrecipIn,Conditions,Clouds,dailyrainin,SoftwareType,DateUTC
2013-08-07 00:02:00,75.0,68.0,29.94,SSE,168,2.0,-999.0,78,-99.99,,,-99.99,,2013-08-07 05:02:00,
2013-08-07 00:11:00,75.0,68.0,29.93,South,189,3.0,-999.0,78,-99.99,,,-99.99,,2013-08-07 05:11:00,
2013-08-07 00:22:00,75.0,70.0,29.92,South,174,3.0,-999.0,83,-99.99,,,-99.99,,2013-08-07 05:22:00,
2013-08-07 00:32:00,75.0,72.0,29.92,WSW,245,3.0,-999.0,88,-99.99,,,-99.99,,2013-08-07 05:32:00,
2013-08-07 00:43:00,77.0,72.0,29.90,South,189,6.0,-999.0,83,-99.99,,,-99.99,,2013-08-07 05:43:00,
2013-08-07 01:02:00,79.0,73.0,29.91,South,188,3.0,-999.0,83,-99.99,,,-99.99,,2013-08-07 06:02:00,
2013-08-07 01:22:00,79.0,73.0,29.93,SW,215,2.0,-999.0,83,-99.99,,,-99.99,,2013-08-07 06:22:00,
2013-08-07 01:32:00,79.0,73.0,29.93,SSW,192,2.0,-999.0,83,-99.99,,,-99.99,,2013-08-07 06:32:00,
2013-08-07 01:43:00,79.0,73.0,29.93,SSW,212,3.0,-999.0,83,-99.99,,,-99.99,,2013-08-07 06:43:00,
2013-08-07 01:52:00,79.0,73.0,29.92,SSE,166,1.0,-999.0,83,-99.99,,,-99.99,,2013-08-07 06:52:00,
2013-08-07 02:01:00,79.0,73.0,29.92,ESE,116,1.0,-999.0,83,-99.99,,,-99.99,,2013-08-07 07:01:00,
2013-08-07 02:12:00,79.0,73.0,29.91,North,0,0.0,-999.0,83,-99.99,,,-99.99,,2013-08-07 07:12:00,
2013-08-07 02:22:00,77.0,72.0,29.90,North,0,0.0,-999.0,83,-99.99,,,-99.99,,2013-08-07 07:22:00,
2013-08-07 02:33:00,77.0,72.0,29.90,North,0,0.0,-999.0,83,-99.99,,,-99.99,,2013-08-07 07:33:00,
2013-08-07 02:43:00,77.0,73.0,29.90,SSW,203,2.0,-999.0,88,-99.99,,,-99.99,,2013-08-07 07:43:00,
2013-08-07 02:52:00,77.0,73.0,29.90,West,264,2.0,-999.0,88,-99.99,,,-99.99,,2013-08-07 07:52:00,
2013-08-07 03:01:00,77.0,73.0,29.89,South,186,0.0,-999.0,88,-99.99,,,-99.99,,2013-08-07 08:01:00,
2013-08-07 03:11:00,77.0,73.0,29.90,SW,230,2.0,-999.0,88,-99.99,,,-99.99,,2013-08-07 08:11:00,
2013-08-07 03:22:00,77.0,73.0,29.89,SSW,205,2.0,-999.0,88,-99.99,,,-99.99,,2013-08-07 08:22:00,
2013-08-07 03:32:00,77.0,73.0,29.89,East,92,2.0,-999.0,88,-99.99,,,-99.99,,2013-08-07 08:32:00,
2013-08-07 03:44:00,75.0,72.0,29.90,North,349,2.0,-999.0,88,-99.99,,,-99.99,,2013-08-07 08:44:00,
2013-08-07 03:52:00,75.0,72.0,29.91,NNW,331,2.0,-999.0,88,-99.99,,,-99.99,,2013-08-07 08:52:00,
2013-08-07 04:02:00,75.0,72.0,29.92,North,11,5.0,-999.0,88,-99.99,,,-99.99,,2013-08-07 09:02:00,
2013-08-07 04:11:00,75.0,72.0,29.93,NE,45,3.0,-999.0,88,-99.99,,,-99.99,,2013-08-07 09:11:00,
2013-08-07 04:22:00,73.0,70.0,29.91,ENE,67,3.0,-999.0,88,-99.99,,,-99.99,,2013-08-07 09:22:00,
2013-08-07 04:32:00,73.0,70.0,29.91,East,88,6.0,-999.0,88,-99.99,,,-99.99,,2013-08-07 09:32:00,
2013-08-07 04:43:00,73.0,70.0,29.91,East,97,2.0,-999.0,88,-99.99,,,-99.99,,2013-08-07 09:43:00,
2013-08-07 04:54:00,73.0,70.0,29.91,ESE,112,3.0,-999.0,88,-99.99,,,-99.99,,2013-08-07 09:54:00,
2013-08-07 05:01:00,73.0,70.0,29.91,SE,140,0.0,-999.0,88,-99.99,,,-99.99,,2013-08-07 10:01:00,
2013-08-07 05:11:00,73.0,70.0,29.91,SE,133,1.0,-999.0,88,-99.99,,,-99.99,,2013-08-07 10:11:00,
2013-08-07 05:32:00,73.0,70.0,29.90,SSE,154,3.0,-999.0,88,-99.99,,,-99.99,,2013-08-07 10:32:00,
2013-08-07 05:43:00,73.0,70.0,29.90,SSE,162,3.0,-999.0,88,-99.99,,,-99.99,,2013-08-07 10:43:00,
2013-08-07 05:52:00,73.0,72.0,29.91,SSE,166,0.0,-999.0,94,-99.99,,,-99.99,,2013-08-07 10:52:00,
2013-08-07 06:01:00,73.0,72.0,29.91,South,181,3.0,-999.0,94,-99.99,,,-99.99,,2013-08-07 11:01:00,
2013-08-07 06:11:00,73.0,72.0,29.92,SSW,195,5.0,-999.0,94,-99.99,,,-99.99,,2013-08-07 11:11:00,
2013-08-07 06:32:00,73.0,72.0,29.92,South,170,2.0,-999.0,94,-99.99,,,-99.99,,2013-08-07 11:32:00,
2013-08-07 06:43:00,73.0,72.0,29.92,South,176,2.0,-999.0,94,-99.99,,,-99.99,,2013-08-07 11:43:00,
2013-08-07 06:52:00,73.0,72.0,29.92,South,169,2.0,-999.0,94,-99.99,,,-99.99,,2013-08-07 11:52:00,
2013-08-07 07:02:00,73.0,72.0,29.92,SSW,204,2.0,-999.0,94,-99.99,,,-99.99,,2013-08-07 12:02:00,
2013-08-07 07:11:00,75.0,72.0,29.93,SSW,208,3.0,-999.0,88,-99.99,,,-99.99,,2013-08-07 12:11:00,
2013-08-07 07:22:00,75.0,72.0,29.93,SW,227,2.0,-999.0,88,-99.99,,,-99.99,,2013-08-07 12:22:00,
2013-08-07 07:32:00,75.0,72.0,29.93,WSW,251,2.0,-999.0,88,-99.99,,,-99.99,,2013-08-07 12:32:00,
2013-08-07 07:43:00,75.0,72.0,29.93,SSW,198,2.0,-999.0,88,-99.99,,,-99.99,,2013-08-07 12:43:00,
2013-08-07 07:52:00,75.0,73.0,29.93,ENE,70,0.0,-999.0,94,-99.99,,,-99.99,,2013-08-07 12:52:00,
2013-08-07 08:02:00,75.0,73.0,29.93,East,86,0.0,-999.0,94,-99.99,,,-99.99,,2013-08-07 13:02:00,
2013-08-07 08:11:00,75.0,73.0,29.93,South,191,2.0,-999.0,94,-99.99,,,-99.99,,2013-08-07 13:11:00,
2013-08-07 08:22:00,77.0,73.0,29.93,West,281,2.0,-999.0,88,-99.99,,,-99.99,,2013-08-07 13:22:00,
2013-08-07 08:32:00,77.0,73.0,29.93,West,281,3.0,-999.0,88,-99.99,,,-99.99,,2013-08-07 13:32:00,
2013-08-07 08:44:00,77.0,73.0,29.93,WNW,286,2.0,-999.0,88,-99.99,,,-99.99,,2013-08-07 13:44:00,
2013-08-07 08:53:00,79.0,75.0,29.93,West,279,3.0,-999.0,88,-99.99,,,-99.99,,2013-08-07 13:53:00,
2013-08-07 09:02:00,79.0,75.0,29.94,West,264,3.0,-999.0,88,-99.99,,,-99.99,,2013-08-07 14:02:00,
2013-08-07 09:11:00,79.0,75.0,29.95,West,279,2.0,-999.0,88,-99.99,,,-99.99,,2013-08-07 14:11:00,
2013-08-07 09:22:00,79.0,75.0,29.95,West,276,5.0,-999.0,88,-99.99,,,-99.99,,2013-08-07 14:22:00,
2013-08-07 09:33:00,79.0,75.0,29.96,WNW,285,5.0,-999.0,88,-99.99,,,-99.99,,2013-08-07 14:33:00,
2013-08-07 09:43:00,79.0,75.0,29.97,NW,325,1.0,-999.0,88,-99.99,,,-99.99,,2013-08-07 14:43:00,
2013-08-07 09:52:00,79.0,75.0,29.97,West,264,7.0,-999.0,88,-99.99,,,-99.99,,2013-08-07 14:52:00,
2013-08-07 10:02:00,81.0,75.0,29.97,West,275,5.0,-999.0,83,-99.99,,,-99.99,,2013-08-07 15:02:00,
2013-08-07 10:12:00,81.0,77.0,29.97,West,278,5.0,-999.0,88,-99.99,,,-99.99,,2013-08-07 15:12:00,
2013-08-07 10:22:00,82.0,77.0,29.97,WNW,287,6.0,-999.0,83,-99.99,,,-99.99,,2013-08-07 15:22:00,
2013-08-07 10:33:00,82.0,77.0,29.97,North,8,5.0,-999.0,83,-99.99,,,-99.99,,2013-08-07 15:33:00,
2013-08-07 10:43:00,82.0,77.0,29.97,NNE,31,5.0,-999.0,83,-99.99,,,-99.99,,2013-08-07 15:43:00,
2013-08-07 10:53:00,82.0,75.0,29.97,NNE,12,3.0,-999.0,78,-99.99,,,-99.99,,2013-08-07 15:53:00,
2013-08-07 11:02:00,82.0,75.0,29.97,North,355,5.0,-999.0,78,-99.99,,,-99.99,,2013-08-07 16:02:00,
2013-08-07 11:11:00,84.0,75.0,29.97,NE,52,1.0,-999.0,74,-99.99,,,-99.99,,2013-08-07 16:11:00,
2013-08-07 11:22:00,84.0,75.0,29.98,North,4,2.0,-999.0,74,-99.99,,,-99.99,,2013-08-07 16:22:00,
2013-08-07 11:33:00,84.0,75.0,29.97,NNE,15,5.0,-999.0,74,-99.99,,,-99.99,,2013-08-07 16:33:00,
2013-08-07 11:43:00,84.0,75.0,29.97,North,8,3.0,-999.0,74,-99.99,,,-99.99,,2013-08-07 16:43:00,
2013-08-07 11:53:00,84.0,75.0,29.98,NE,37,5.0,-999.0,74,-99.99,,,-99.99,,2013-08-07 16:53:00,
2013-08-07 12:01:00,84.0,75.0,29.98,NNE,22,3.0,-999.0,74,-99.99,,,-99.99,,2013-08-07 17:01:00,
2013-08-07 12:11:00,86.0,75.0,29.97,NNE,26,3.0,-999.0,70,-99.99,,,-99.99,,2013-08-07 17:11:00,
2013-08-07 12:22:00,84.0,73.0,29.97,North,352,5.0,-999.0,70,-99.99,,,-99.99,,2013-08-07 17:22:00,
2013-08-07 12:33:00,84.0,73.0,29.97,NNE,24,5.0,-999.0,70,-99.99,,,-99.99,,2013-08-07 17:33:00,
2013-08-07 12:43:00,84.0,73.0,29.97,North,354,3.0,-999.0,70,-99.99,,,-99.99,,2013-08-07 17:43:00,
2013-08-07 12:52:00,84.0,73.0,29.98,NNE,20,3.0,-999.0,70,-99.99,,,-99.99,,2013-08-07 17:52:00,
2013-08-07 13:02:00,84.0,73.0,29.98,NNE,12,2.0,-999.0,70,-99.99,,,-99.99,,2013-08-07 18:02:00,
2013-08-07 13:11:00,86.0,72.0,29.98,North,5,8.0,-999.0,62,-99.99,,,-99.99,,2013-08-07 18:11:00,
2013-08-07 13:22:00,86.0,70.0,29.98,NNE,19,7.0,-999.0,58,-99.99,,,-99.99,,2013-08-07 18:22:00,
2013-08-07 13:32:00,88.0,72.0,29.98,NNE,32,6.0,-999.0,58,-99.99,,,-99.99,,2013-08-07 18:32:00,
2013-08-07 13:43:00,88.0,72.0,29.98,NNE,17,3.0,-999.0,58,-99.99,,,-99.99,,2013-08-07 18:43:00,
2013-08-07 13:52:00,88.0,70.0,29.98,North,4,5.0,-999.0,55,-99.99,,,-99.99,,2013-08-07 18:52:00,
2013-08-07 14:01:00,88.0,70.0,29.97,North,351,3.0,-999.0,55,-99.99,,,-99.99,,2013-08-07 19:01:00,
2013-08-07 14:11:00,88.0,70.0,29.97,North,350,3.0,-999.0,55,-99.99,,,-99.99,,2013-08-07 19:11:00,
2013-08-07 14:22:00,88.0,70.0,29.97,North,1,3.0,-999.0,55,-99.99,,,-99.99,,2013-08-07 19:22:00,
2013-08-07 14:32:00,88.0,70.0,29.98,NE,46,5.0,-999.0,55,-99.99,,,-99.99,,2013-08-07 19:32:00,
2013-08-07 14:44:00,88.0,70.0,29.98,NW,325,6.0,-999.0,55,-99.99,,,-99.99,,2013-08-07 19:44:00,
2013-08-07 14:52:00,86.0,68.0,29.98,North,2,6.0,-999.0,55,-99.99,,,-99.99,,2013-08-07 19:52:00,
2013-08-07 15:02:00,86.0,66.0,29.98,North,11,6.0,-999.0,51,-99.99,,,-99.99,,2013-08-07 20:02:00,
2013-08-07 15:11:00,86.0,70.0,29.98,NNE,31,6.0,-999.0,58,-99.99,,,-99.99,,2013-08-07 20:11:00,
2013-08-07 15:22:00,84.0,70.0,29.98,North,350,5.0,-999.0,62,-99.99,,,-99.99,,2013-08-07 20:22:00,
2013-08-07 15:32:00,86.0,70.0,29.98,North,8,6.0,-999.0,58,-99.99,,,-99.99,,2013-08-07 20:32:00,
2013-08-07 15:43:00,86.0,70.0,29.98,North,353,7.0,-999.0,58,-99.99,,,-99.99,,2013-08-07 20:43:00,
2013-08-07 15:52:00,86.0,70.0,29.98,North,10,6.0,-999.0,58,-99.99,,,-99.99,,2013-08-07 20:52:00,
2013-08-07 16:01:00,84.0,68.0,29.98,North,5,6.0,-999.0,58,-99.99,,,-99.99,,2013-08-07 21:01:00,
2013-08-07 16:11:00,84.0,66.0,29.98,NNE,12,5.0,-999.0,54,-99.99,,,-99.99,,2013-08-07 21:11:00,
2013-08-07 16:22:00,84.0,66.0,29.99,North,3,7.0,-999.0,54,-99.99,,,-99.99,,2013-08-07 21:22:00,
2013-08-07 16:32:00,84.0,66.0,29.99,NNE,17,6.0,-999.0,54,-99.99,,,-99.99,,2013-08-07 21:32:00,
2013-08-07 16:43:00,84.0,66.0,29.99,NNW,337,5.0,-999.0,54,-99.99,,,-99.99,,2013-08-07 21:43:00,
2013-08-07 16:52:00,84.0,66.0,29.99,NNE,26,5.0,-999.0,54,-99.99,,,-99.99,,2013-08-07 21:52:00,
2013-08-07 17:01:00,84.0,66.0,30.00,North,358,5.0,-999.0,54,-99.99,,,-99.99,,2013-08-07 22:01:00,
2013-08-07 17:12:00,84.0,68.0,30.00,NNE,24,7.0,-999.0,58,-99.99,,,-99.99,,2013-08-07 22:12:00,
2013-08-07 17:22:00,84.0,66.0,30.00,North,358,5.0,-999.0,54,-99.99,,,-99.99,,2013-08-07 22:22:00,
2013-08-07 17:32:00,84.0,66.0,30.00,North,358,5.0,-999.0,54,-99.99,,,-99.99,,2013-08-07 22:32:00,
2013-08-07 17:43:00,84.0,66.0,30.00,ENE,58,6.0,-999.0,54,-99.99,,,-99.99,,2013-08-07 22:43:00,
2013-08-07 17:52:00,84.0,66.0,30.00,North,349,5.0,-999.0,54,-99.99,,,-99.99,,2013-08-07 22:52:00,
2013-08-07 18:01:00,82.0,66.0,30.00,NNE,27,5.0,-999.0,58,-99.99,,,-99.99,,2013-08-07 23:01:00,
2013-08-07 18:11:00,82.0,66.0,30.01,NE,38,3.0,-999.0,58,-99.99,,,-99.99,,2013-08-07 23:11:00,
2013-08-07 18:22:00,82.0,66.0,30.01,NNE,18,7.0,-999.0,58,-99.99,,,-99.99,,2013-08-07 23:22:00,
2013-08-07 18:32:00,82.0,66.0,30.01,NNE,17,5.0,-999.0,58,-99.99,,,-99.99,,2013-08-07 23:32:00,
2013-08-07 18:43:00,82.0,66.0,30.02,North,8,6.0,-999.0,58,-99.99,,,-99.99,,2013-08-07 23:43:00,
2013-08-07 18:52:00,82.0,66.0,30.02,North,9,3.0,-999.0,58,-99.99,,,-99.99,,2013-08-07 23:52:00,
2013-08-07 19:01:00,82.0,66.0,30.03,North,355,5.0,-999.0,58,-99.99,,,-99.99,,2013-08-08 00:01:00,
2013-08-07 19:11:00,81.0,66.0,30.03,NNE,24,3.0,-999.0,61,-99.99,,,-99.99,,2013-08-08 00:11:00,
2013-08-07 19:22:00,81.0,66.0,30.04,NNE,30,3.0,-999.0,61,-99.99,,,-99.99,,2013-08-08 00:22:00,
2013-08-07 19:32:00,81.0,66.0,30.04,NNE,32,5.0,-999.0,61,-99.99,,,-99.99,,2013-08-08 00:32:00,
2013-08-07 19:42:00,81.0,66.0,30.04,NE,41,2.0,-999.0,61,-99.99,,,-99.99,,2013-08-08 00:42:00,
2013-08-07 19:52:00,81.0,66.0,30.05,NE,46,2.0,-999.0,61,-99.99,,,-99.99,,2013-08-08 00:52:00,
2013-08-07 20:02:00,79.0,66.0,30.05,NE,45,2.0,-999.0,65,-99.99,,,-99.99,,2013-08-08 01:02:00,
2013-08-07 20:11:00,79.0,66.0,30.05,ENE,61,1.0,-999.0,65,-99.99,,,-99.99,,2013-08-08 01:11:00,
2013-08-07 20:22:00,79.0,66.0,30.05,NE,43,2.0,-999.0,65,-99.99,,,-99.99,,2013-08-08 01:22:00,
2013-08-07 20:32:00,77.0,66.0,30.05,NE,51,2.0,-999.0,69,-99.99,,,-99.99,,2013-08-08 01:32:00,
2013-08-07 20:43:00,77.0,66.0,30.05,NE,34,2.0,-999.0,69,-99.99,,,-99.99,,2013-08-08 01:43:00,
2013-08-07 20:52:00,75.0,66.0,30.05,ENE,65,1.0,-999.0,73,-99.99,,,-99.99,,2013-08-08 01:52:00,
2013-08-07 21:02:00,75.0,64.0,30.05,NE,34,2.0,-999.0,69,-99.99,,,-99.99,,2013-08-08 02:02:00,
2013-08-07 21:11:00,75.0,66.0,30.05,North,0,0.0,-999.0,73,-99.99,,,-99.99,,2013-08-08 02:11:00,
2013-08-07 21:22:00,73.0,66.0,30.06,NE,39,1.0,-999.0,78,-99.99,,,-99.99,,2013-08-08 02:22:00,
2013-08-07 21:32:00,73.0,66.0,30.06,NE,52,1.0,-999.0,78,-99.99,,,-99.99,,2013-08-08 02:32:00,
2013-08-07 21:42:00,73.0,66.0,30.07,East,84,0.0,-999.0,78,-99.99,,,-99.99,,2013-08-08 02:42:00,
2013-08-07 21:52:00,73.0,64.0,30.08,East,92,0.0,-999.0,73,-99.99,,,-99.99,,2013-08-08 02:52:00,
2013-08-07 22:01:00,73.0,64.0,30.08,NE,40,1.0,-999.0,73,-99.99,,,-99.99,,2013-08-08 03:01:00,
2013-08-07 22:12:00,73.0,66.0,30.08,North,0,0.0,-999.0,78,-99.99,,,-99.99,,2013-08-08 03:12:00,
2013-08-07 22:22:00,72.0,64.0,30.08,ENE,69,1.0,-999.0,78,-99.99,,,-99.99,,2013-08-08 03:22:00,
2013-08-07 22:32:00,72.0,64.0,30.08,East,86,0.0,-999.0,78,-99.99,,,-99.99,,2013-08-08 03:32:00,
2013-08-07 22:43:00,72.0,64.0,30.09,NE,45,0.0,-999.0,78,-99.99,,,-99.99,,2013-08-08 03:43:00,
2013-08-07 22:52:00,72.0,64.0,30.08,ENE,71,0.0,-999.0,78,-99.99,,,-99.99,,2013-08-08 03:52:00,
2013-08-07 23:01:00,72.0,64.0,30.08,NE,42,1.0,-999.0,78,-99.99,,,-99.99,,2013-08-08 04:01:00,
2013-08-07 23:11:00,72.0,64.0,30.09,NNE,21,1.0,-999.0,78,-99.99,,,-99.99,,2013-08-08 04:11:00,
2013-08-07 23:22:00,70.0,64.0,30.10,ENE,62,1.0,-999.0,82,-99.99,,,-99.99,,2013-08-08 04:22:00,
2013-08-07 23:33:00,70.0,64.0,30.10,NE,38,1.0,-999.0,82,-99.99,,,-99.99,,2013-08-08 04:33:00,
2013-08-07 23:43:00,70.0,64.0,30.10,ENE,60,1.0,-999.0,82,-99.99,,,-99.99,,2013-08-08 04:43:00,
2013-08-07 23:53:00,70.0,64.0,30.10,ENE,58,1.0,-999.0,82,-99.99,,,-99.99,,2013-08-08 04:53:00,